Theta_e
309 318 319 321 323 325 325 326 326 325 324 322 321 322 340 337 344 347 338 341 343 345 342 341 339 337 336 336 336 337 338 338 338 337 335 332 331 335 336 337 337 337 336 333 330 334 331 322 316
309 319 319 320 323 324 325 325 325 323 322 321 322 324 338 334 327 334 337 341 342 342 345 338 340 338 337 338 338 339 339 339 338 337 334 332 333 336 337 337 336 335 336 335 334 330 331 322 315
314 320 321 322 321 321 321 323 322 321 321 321 325 333 328 319 326 329 329 335 341 344 345 340 339 340 338 339 338 339 340 340 339 337 334 334 336 336 336 336 335 336 335 333 334 332 331 323 315
317 319 319 319 320 320 320 321 320 320 320 321 330 332 319 314 321 328 329 337 340 341 341 339 340 340 338 338 338 339 341 340 340 338 336 335 336 335 335 335 336 337 334 333 333 333 330 320 318
317 318 319 319 318 320 319 319 318 319 321 317 327 326 318 316 318 328 331 333 337 339 338 337 337 339 339 337 337 338 339 339 340 340 338 336 336 335 335 335 336 335 332 331 331 332 328 322 321
320 318 318 318 318 319 319 318 317 318 317 314 321 322 315 314 315 325 328 331 332 331 337 337 336 336 336 336 336 336 336 336 337 339 340 338 336 335 335 335 336 333 332 331 332 331 327 323 321
319 319 318 318 318 318 317 316 316 315 315 312 316 317 313 312 314 320 325 325 327 330 329 336 338 337 336 334 333 333 334 335 334 337 339 339 338 337 335 335 336 336 333 332 332 330 323 322 322
316 318 317 317 317 318 316 315 316 314 312 312 312 311 311 311 313 317 318 320 321 326 329 330 333 336 336 338 339 336 331 333 333 332 337 338 337 337 335 335 336 335 334 335 332 329 322 319 323
316 318 318 317 317 317 315 316 315 314 311 311 309 309 309 309 311 311 313 314 318 319 323 328 328 329 335 336 336 337 335 332 329 332 333 337 337 337 335 335 335 333 333 333 332 328 323 320 321
316 317 316 314 314 314 314 312 313 314 310 309 308 308 307 308 308 309 309 310 311 315 319 325 325 330 329 332 332 335 338 338 337 333 333 334 336 337 336 335 335 334 332 334 332 328 324 322 321
314 313 315 313 312 313 314 311 309 311 309 307 307 307 306 306 306 307 307 308 308 309 309 318 316 323 330 332 333 334 335 336 336 336 337 336 335 336 337 335 335 334 332 334 333 328 325 324 323
313 312 313 310 311 312 313 312 308 307 307 307 306 306 305 305 305 305 305 306 307 307 308 309 313 319 316 322 327 332 334 336 336 335 335 336 336 335 336 336 336 335 333 334 334 328 325 327 327
313 312 311 309 309 308 310 310 308 306 306 306 306 305 304 304 303 304 304 304 305 307 307 308 310 312 313 315 320 330 332 335 336 337 335 336 337 336 335 337 335 335 334 335 332 329 326 331 329
310 311 309 308 309 308 307 309 308 305 305 305 304 304 303 303 302 302 303 303 304 305 305 306 307 308 310 312 315 321 328 331 335 337 335 335 337 337 336 336 335 334 334 334 333 333 327 331 330
309 310 310 309 306 306 304 306 305 304 304 303 303 302 302 302 301 300 301 302 303 303 304 305 306 307 308 310 314 317 320 326 331 337 336 335 336 337 336 336 334 334 333 332 331 333 330 330 328
308 308 308 308 306 304 302 305 304 302 301 301 300 301 301 300 300 300 300 301 301 302 303 303 304 305 306 308 311 313 316 323 329 335 337 335 335 336 335 335 335 334 332 333 331 334 331 331 328
306 303 304 304 305 304 303 301 303 301 300 299 299 299 299 299 299 299 299 300 301 301 302 302 303 303 304 305 307 310 315 321 327 333 334 336 335 335 335 334 334 334 333 331 331 331 332 331 329
300 301 302 302 303 302 301 301 303 300 299 298 298 298 298 298 298 298 298 299 300 300 301 301 302 302 303 304 304 307 313 318 322 328 333 335 335 335 335 333 333 333 334 332 332 334 332 329 330
301 301 301 302 301 300 300 300 301 300 299 298 297 297 297 297 297 297 298 298 298 299 299 300 301 302 302 303 303 305 308 315 321 326 328 332 335 335 335 334 333 332 334 333 332 332 332 329 330
300 300 299 299 300 299 299 300 300 299 298 297 297 296 296 296 296 296 296 297 298 298 298 299 299 300 301 302 302 302 305 310 317 322 326 330 333 334 335 333 333 335 333 333 332 333 331 328 327
300 299 298 298 300 300 301 300 299 299 298 297 296 296 295 296 295 295 295 296 296 296 297 298 299 299 300 300 300 300 303 307 311 319 324 327 331 332 333 334 334 333 331 333 332 332 329 328 329
299 299 299 299 300 298 301 301 298 298 297 296 295 295 295 295 295 295 295 295 295 295 296 297 297 298 299 299 299 299 301 302 305 310 318 323 326 329 330 333 334 333 332 331 331 331 330 330 330
299 300 300 300 299 300 300 300 299 297 296 295 295 294 294 294 294 294 294 294 294 294 294 295 297 297 298 298 299 299 299 300 303 305 313 318 321 325 329 332 333 333 333 332 331 331 331 331 330
299 299 300 301 302 303 299 297 299 295 295 295 295 294 294 294 294 293 293 293 294 293 293 293 294 296 296 297 297 298 298 298 300 303 307 313 318 323 326 330 332 332 331 332 333 332 330 330 329
298 298 297 297 298 298 299 298 297 295 295 294 294 294 293 293 293 293 293 293 293 293 292 293 293 295 296 296 296 297 297 298 298 300 301 307 313 318 324 327 329 331 331 330 332 329 331 330 329
298 298 297 297 297 297 298 298 299 296 294 294 294 294 293 293 293 293 293 292 292 292 292 292 293 294 295 295 296 296 297 297 297 297 300 302 308 311 316 322 326 328 329 330 329 330 330 330 330
298 297 297 297 297 297 297 297 297 296 295 294 294 293 293 293 292 292 292 292 292 292 291 291 292 293 294 295 294 295 296 296 297 297 298 299 304 308 312 317 323 325 328 330 329 330 328 329 329
298 298 297 297 297 297 298 296 297 295 294 294 293 293 293 292 292 292 292 292 291 291 291 291 291 292 293 294 294 294 295 296 296 296 297 299 301 306 310 313 318 323 326 328 329 328 330 329 330
298 298 297 297 297 296 296 298 297 295 294 294 293 292 292 292 292 292 291 291 291 291 291 291 291 291 293 293 293 294 295 295 295 296 296 298 299 303 309 312 315 320 325 326 326 329 328 328 329
298 298 297 296 296 295 297 299 296 295 294 294 293 292 292 291 292 291 291 291 291 290 291 291 290 291 291 292 292 293 294 294 294 295 296 297 297 300 304 308 311 315 319 324 326 328 329 327 327
Wind_Speed
6 7 12 10 6 7 14 18 20 11 9 14 10 10 20 21 8 4 16 24 17 8 8 9 11 12 11 10 10 9 8 8 8 9 10 13 15 16 15 17 18 15 12 12 14 15 14 13 15
5 3 8 10 9 11 13 19 9 16 15 8 8 7 20 8 21 8 19 31 31 24 11 12 11 12 11 10 10 9 8 8 7 7 10 11 13 15 13 11 8 5 8 7 22 17 14 14 17
7 6 11 6 9 13 6 14 17 13 6 7 7 23 9 12 17 15 24 31 29 14 19 12 9 11 10 9 9 8 7 7 6 6 8 11 14 14 9 7 5 6 10 17 19 17 14 15 18
8 12 11 8 16 7 11 15 15 11 4 30 25 13 10 17 22 21 24 26 25 20 19 14 12 9 8 8 7 6 5 4 4 5 7 11 12 8 5 7 6 11 15 16 15 14 15 17 18
8 11 9 14 15 12 11 19 15 13 15 28 27 12 14 18 23 15 20 20 19 23 16 12 10 10 8 7 5 3 3 3 3 5 7 10 11 8 6 9 9 14 16 16 14 13 15 16 18
14 10 10 12 13 14 17 15 16 25 27 31 14 17 19 22 26 18 12 16 15 16 18 10 9 9 8 6 4 3 0 2 2 4 7 10 10 8 8 11 11 17 13 15 13 14 14 16 18
13 10 13 13 6 10 14 15 17 23 25 28 13 8 20 27 25 18 13 14 17 9 10 8 8 8 8 7 4 3 5 3 3 4 6 9 10 10 12 14 11 15 17 14 11 15 15 17 18
9 9 16 12 5 18 14 16 20 21 24 10 15 11 12 23 22 18 16 19 19 12 10 5 7 5 6 6 7 4 5 7 6 6 7 8 11 11 14 16 13 13 12 16 12 16 16 17 17
10 9 6 18 14 13 19 18 15 20 23 24 23 18 15 18 20 24 20 20 21 22 15 9 8 11 6 5 6 4 5 6 7 8 8 10 12 13 16 18 15 14 12 16 14 17 17 17 15
12 8 13 14 14 10 19 20 12 9 21 21 19 18 18 20 24 27 30 29 29 27 22 15 12 9 5 8 6 4 6 6 5 7 10 12 14 16 17 20 19 19 18 17 16 18 18 18 16
10 9 12 15 15 10 24 23 21 16 15 19 18 18 19 22 25 27 27 27 25 25 30 17 18 13 12 13 9 8 6 4 5 8 12 13 16 17 19 22 22 24 24 22 18 21 21 19 16
6 7 10 13 14 12 14 14 22 22 14 14 15 16 19 22 24 26 28 29 30 29 28 24 20 19 15 11 11 9 6 3 4 6 8 13 16 18 20 23 23 23 25 28 21 25 23 18 11
8 6 5 7 10 11 4 12 16 17 12 14 15 18 20 22 23 23 24 24 25 28 30 25 21 21 21 16 13 11 6 6 5 6 8 11 16 17 17 21 23 29 32 29 24 26 24 22 15
8 5 4 3 5 8 11 12 9 16 12 16 18 20 20 21 23 24 26 27 25 24 25 26 25 24 23 16 13 10 10 8 5 6 7 9 13 15 16 18 16 22 28 29 23 26 26 24 24
11 9 12 11 5 5 9 4 14 15 15 19 19 20 20 22 23 25 26 25 25 23 23 24 22 23 24 18 14 10 11 11 7 5 5 7 10 14 13 15 15 22 27 34 29 30 27 28 27
6 10 11 13 4 14 10 7 12 14 17 21 22 22 21 22 23 24 26 25 23 23 24 23 23 25 25 18 13 15 11 8 9 4 5 6 11 12 13 9 11 12 29 28 34 27 29 31 32
15 11 18 18 15 13 11 13 17 15 18 21 23 23 23 22 23 25 25 25 24 24 25 25 25 27 28 24 15 13 11 7 7 7 5 5 7 10 10 8 9 11 20 31 33 27 32 31 29
12 15 13 14 15 20 16 13 12 15 19 20 20 22 23 24 26 25 23 25 24 24 25 26 28 30 28 29 22 15 12 5 7 7 8 8 5 9 9 10 4 9 19 25 30 29 36 31 29
14 16 15 15 21 19 15 13 15 14 15 17 19 23 22 22 22 25 28 24 24 26 27 27 29 31 29 32 30 24 20 13 4 7 9 10 9 8 10 8 7 9 17 24 34 30 30 32 27
16 15 19 19 19 16 18 5 15 11 14 16 19 19 20 21 22 23 24 26 26 26 27 27 27 29 29 30 31 27 23 18 11 6 9 9 7 12 15 12 12 14 14 19 27 31 46 29 31
15 18 19 23 22 17 16 9 9 7 12 15 17 17 19 22 23 23 24 25 26 28 28 27 26 26 27 27 29 29 22 18 13 7 9 11 7 13 12 19 15 15 13 18 24 33 25 27 33
13 22 24 24 17 7 7 3 2 4 9 15 16 16 17 19 20 22 23 25 24 27 27 28 26 25 25 27 30 27 28 27 23 19 12 9 14 11 16 14 21 16 15 18 20 27 29 32 38
20 24 23 17 6 4 8 3 3 10 9 11 13 15 16 16 18 20 22 23 24 26 27 27 27 25 27 25 26 27 27 27 25 23 16 11 10 8 5 17 15 23 19 16 20 22 29 43 41
20 23 17 11 7 3 9 8 3 3 6 9 13 16 17 18 18 18 19 22 24 25 27 28 26 26 26 26 25 26 26 28 26 24 21 15 13 10 8 10 16 23 18 21 19 16 27 30 42
20 20 8 10 9 8 5 9 4 1 4 8 12 15 17 17 17 19 20 21 24 26 27 28 27 26 26 25 24 24 27 26 27 26 23 20 16 12 10 10 11 16 23 19 19 17 32 31 33
16 14 7 13 11 13 6 4 2 8 7 9 12 13 16 19 21 21 21 21 22 25 27 28 27 26 25 25 24 23 25 26 26 26 24 19 18 17 13 12 9 12 22 20 18 13 21 27 34
9 13 10 11 11 9 5 3 4 7 8 10 12 13 16 19 22 22 23 24 24 24 25 27 27 26 24 23 24 23 22 26 27 26 25 22 16 15 16 12 13 12 17 20 22 22 15 20 27
7 9 8 8 6 13 12 6 0 4 6 9 13 16 17 19 21 23 23 23 25 25 24 25 26 25 24 23 24 24 22 24 26 26 27 26 20 14 15 15 13 13 16 18 25 21 25 22 25
5 8 6 8 3 10 9 11 5 4 7 8 11 15 17 20 23 23 24 24 23 23 25 23 24 24 23 23 25 23 24 23 24 26 27 29 22 14 14 15 14 12 14 14 25 26 22 19 30
7 7 8 7 11 11 10 4 1 2 12 15 17 18 17 19 21 22 23 25 24 22 24 23 22 23 22 22 23 24 22 23 24 26 27 30 23 16 11 12 13 11 12 16 17 27 28 25 21
Wind_Direction
279 324 320 285 243 228 259 254 256 121 108 39 347 319 102 44 3 14 341 12 357 43 106 101 99 102 99 96 92 91 95 107 120 131 143 149 146 151 152 152 153 161 159 180 165 160 156 148 146
306 13 263 273 236 248 236 240 64 48 33 3 330 312 38 64 21 2 5 23 37 61 59 58 80 89 93 91 91 90 100 113 123 134 145 158 156 156 149 159 178 249 205 196 169 150 158 151 146
350 336 281 231 234 254 309 40 37 38 22 355 35 59 42 347 350 354 10 30 39 58 77 64 60 75 76 79 83 85 98 113 132 146 154 159 157 160 167 186 218 211 171 149 147 158 156 158 148
312 254 247 257 254 246 37 36 30 342 38 27 7 64 73 12 354 357 3 45 46 45 62 84 83 54 59 79 80 90 103 121 142 160 170 171 176 185 198 180 180 160 160 154 159 159 165 155 145
259 272 262 262 262 82 40 45 11 13 42 18 52 67 78 24 3 356 9 43 53 41 47 46 61 68 58 35 67 94 121 139 164 184 191 192 197 202 195 179 160 161 170 170 166 166 159 152 145
280 248 274 258 251 67 56 32 21 34 45 20 28 93 52 15 8 3 3 35 51 35 24 28 23 40 48 58 16 358 136 162 192 195 202 206 214 210 198 182 172 161 177 177 178 166 159 158 151
274 296 282 307 342 64 56 42 44 55 36 30 27 77 40 19 3 8 4 13 38 75 300 333 26 37 44 46 38 346 303 268 222 221 201 212 223 215 199 184 170 177 165 189 179 171 165 162 154
309 310 284 266 282 64 42 62 64 71 52 45 38 37 13 7 8 25 10 7 23 48 71 337 311 345 21 41 34 339 308 281 250 225 217 206 211 216 198 196 188 170 186 189 195 179 171 163 162
301 275 327 19 35 73 44 48 71 95 67 56 51 44 17 9 13 21 25 16 7 18 29 29 301 281 257 302 332 12 326 289 262 244 224 215 218 212 205 207 199 197 192 195 207 187 176 171 171
295 314 50 32 20 14 83 58 13 57 51 42 38 31 22 15 16 18 20 18 14 360 358 22 7 314 304 304 293 274 325 296 269 250 236 224 225 221 214 214 216 212 198 199 209 196 183 181 180
24 6 349 34 11 1 107 73 44 35 44 35 29 23 22 20 17 15 14 15 15 14 355 347 356 350 330 307 337 308 293 332 278 235 229 223 223 223 218 216 217 212 204 198 201 195 187 189 188
306 51 32 41 25 32 27 82 60 49 44 37 34 28 25 24 22 15 11 8 6 7 354 354 354 337 334 334 314 292 272 303 318 278 245 227 221 228 222 227 215 217 202 197 197 196 191 178 197
310 97 54 65 61 35 27 71 79 45 30 38 33 31 28 24 22 19 12 9 8 5 350 351 355 341 334 331 321 291 276 238 277 278 257 235 226 233 232 229 223 219 209 201 195 198 189 175 187
352 332 146 33 50 73 15 78 39 40 32 39 32 28 25 21 20 17 12 8 7 4 358 356 359 344 327 337 331 333 305 310 249 267 273 246 236 233 238 239 231 220 213 202 201 200 185 181 194
302 261 223 194 74 72 28 203 68 37 35 33 26 23 19 19 16 17 10 5 3 360 359 358 354 344 340 349 350 340 310 272 275 213 271 264 248 238 242 245 235 222 216 208 209 187 184 194 192
249 277 267 134 177 93 47 97 76 47 39 28 16 13 11 12 11 10 6 3 2 358 358 359 353 347 342 352 352 343 317 300 291 238 249 271 266 247 244 255 251 241 219 211 215 196 195 197 197
48 342 333 322 358 3 11 324 103 55 38 27 16 8 6 5 5 6 2 1 1 358 356 358 354 354 353 343 345 339 334 307 304 253 236 223 265 257 238 258 268 248 217 213 220 208 196 198 192
329 315 307 297 350 343 324 308 69 42 32 27 17 16 6 0 3 2 1 359 360 360 358 358 355 360 0 345 342 338 353 333 288 276 255 230 230 266 238 250 241 244 225 223 214 218 207 202 193
323 320 307 336 342 320 300 276 86 50 49 36 25 17 13 3 352 348 358 0 359 1 1 1 356 359 0 354 344 349 349 352 305 268 253 236 227 232 266 246 252 224 236 224 222 216 201 189 190
343 354 338 318 318 304 288 355 57 51 51 33 23 11 0 2 2 358 353 352 358 358 359 359 359 1 356 358 347 348 349 346 340 280 264 255 220 217 223 260 244 236 240 241 229 221 208 197 202
342 357 324 312 305 278 323 86 50 32 46 32 25 11 2 360 357 357 359 356 353 356 357 356 359 1 357 354 351 349 347 346 344 302 256 263 244 226 218 226 258 239 239 236 253 236 214 218 207
350 336 321 308 288 353 341 88 152 29 31 24 16 9 9 2 354 355 354 356 353 356 354 355 355 359 357 358 354 356 356 350 347 339 322 268 265 254 234 233 244 240 248 239 233 225 236 230 222
346 334 323 313 344 70 358 71 329 30 8 7 5 0 1 3 358 354 352 352 351 355 354 352 354 356 358 359 357 357 356 353 347 339 332 312 299 293 249 228 228 247 249 248 226 251 236 232 227
347 353 352 31 71 75 337 321 121 47 334 353 353 357 356 355 355 352 350 348 351 352 352 352 349 354 355 357 357 356 356 357 355 344 336 335 318 286 280 229 225 226 253 252 252 261 241 235 231
6 9 1 6 357 354 301 312 161 238 329 352 355 359 356 352 352 347 349 348 349 351 350 350 350 349 352 356 356 355 353 355 355 353 341 331 322 306 276 259 233 226 222 262 257 255 248 233 234
11 16 14 327 335 309 45 350 26 232 8 345 348 357 354 355 355 352 352 349 346 346 347 348 347 346 349 352 356 352 352 354 352 352 350 327 318 307 307 279 245 221 231 234 260 261 231 241 245
352 13 341 336 318 322 353 115 351 287 353 346 347 356 352 351 351 349 347 351 345 342 343 344 344 344 346 349 349 352 354 350 353 352 349 334 319 310 307 294 263 248 232 232 237 252 253 237 240
28 2 341 347 318 326 332 338 205 256 318 344 352 351 349 348 342 341 344 341 341 339 339 341 341 342 344 347 348 348 349 355 350 351 349 344 330 310 302 297 289 249 239 236 232 245 245 247 260
347 0 350 324 322 330 320 321 131 236 287 319 340 341 341 342 335 335 338 341 335 335 336 339 339 338 341 346 345 345 347 353 351 350 349 346 341 321 300 292 285 274 242 243 236 235 247 242 246
270 353 334 329 324 317 304 324 317 268 339 339 337 328 328 330 328 327 333 336 333 333 333 336 336 335 335 337 342 343 348 347 350 352 351 350 350 339 314 301 291 289 261 242 239 229 237 243 242